TimeCDT,TemperatureF,Dew PointF,Humidity,Sea Level PressureIn,VisibilityMPH,Wind Direction,Wind SpeedMPH,Gust SpeedMPH,PrecipitationIn,Events,Conditions,WindDirDegrees,DateUTC
12:53 AM,60.1,52.0,75,30.06,10.0,Calm,Calm,-,N/A,,Clear,0,2013-09-04 05:53:00
1:53 AM,57.0,53.1,87,30.07,10.0,South,4.6,-,N/A,,Clear,180,2013-09-04 06:53:00
2:53 AM,55.9,53.1,90,30.09,10.0,South,4.6,-,N/A,,Clear,180,2013-09-04 07:53:00
3:53 AM,57.9,53.1,84,30.09,10.0,Calm,Calm,-,N/A,,Clear,0,2013-09-04 08:53:00
4:53 AM,55.9,51.1,84,30.09,10.0,SSW,3.5,-,N/A,,Clear,200,2013-09-04 09:53:00
5:53 AM,55.9,51.1,84,30.10,10.0,South,3.5,-,N/A,,Clear,190,2013-09-04 10:53:00
6:53 AM,57.0,51.1,81,30.12,10.0,Calm,Calm,-,N/A,,Clear,0,2013-09-04 11:53:00
7:53 AM,63.0,54.0,72,30.13,10.0,Calm,Calm,-,N/A,,Clear,0,2013-09-04 12:53:00
8:53 AM,66.9,55.0,66,30.13,10.0,Calm,Calm,-,N/A,,Clear,0,2013-09-04 13:53:00
9:53 AM,73.9,57.0,55,30.14,10.0,SW,3.5,-,N/A,,Clear,230,2013-09-04 14:53:00
10:53 AM,80.1,55.9,43,30.14,10.0,SW,4.6,-,N/A,,Clear,220,2013-09-04 15:53:00
11:53 AM,82.0,55.0,39,30.14,10.0,Calm,Calm,-,N/A,,Clear,0,2013-09-04 16:53:00
12:53 PM,86.0,55.0,35,30.13,10.0,Variable,4.6,-,N/A,,Clear,0,2013-09-04 17:53:00
1:53 PM,87.1,55.9,35,30.12,10.0,Variable,3.5,-,N/A,,Clear,0,2013-09-04 18:53:00
2:53 PM,88.0,57.0,35,30.10,10.0,Variable,3.5,-,N/A,,Clear,0,2013-09-04 19:53:00
3:53 PM,89.1,59.0,36,30.08,10.0,North,5.8,-,N/A,,Clear,350,2013-09-04 20:53:00
4:53 PM,89.1,59.0,36,30.06,10.0,North,6.9,-,N/A,,Clear,360,2013-09-04 21:53:00
5:53 PM,87.1,60.1,40,30.06,10.0,NE,5.8,-,N/A,,Clear,50,2013-09-04 22:53:00
6:53 PM,82.0,64.0,54,30.08,10.0,Calm,Calm,-,N/A,,Clear,0,2013-09-04 23:53:00
7:53 PM,73.9,64.9,73,30.09,10.0,Calm,Calm,-,N/A,,Clear,0,2013-09-05 00:53:00
8:53 PM,71.1,63.0,75,30.10,10.0,Calm,Calm,-,N/A,,Clear,0,2013-09-05 01:53:00
9:53 PM,70.0,63.0,78,30.11,10.0,Calm,Calm,-,N/A,,Clear,0,2013-09-05 02:53:00
10:53 PM,68.0,61.0,78,30.11,10.0,SSW,4.6,-,N/A,,Clear,210,2013-09-05 03:53:00
11:53 PM,66.9,62.1,84,30.12,10.0,Calm,Calm,-,N/A,,Clear,0,2013-09-05 04:53:00